Weather History for KVGT - September, 2013

Change the Weather History Date:

Sunday, September 8, 2013

  Actual Average Record
Temperature  
Mean Temperature 77 °F -  
Max Temperature 86 °F 98 °F 111 °F (1957)
Min Temperature 70 °F 70 °F 51 °F (1951)
Cooling Degree Days 12    
Growing Degree Days 27 (Base 50)    
Moisture  
Dew Point 62 °F    
Average Humidity 60    
Maximum Humidity 84    
Minimum Humidity 44    
Precipitation  
Precipitation 0.04 in - - ()
Sea Level Pressure  
Sea Level Pressure 29.90 in    
Wind  
Wind Speed 4 mph (SE)    
Max Wind Speed 10 mph    
Max Gust Speed -    
Visibility 10 miles    
Events Rain    
Averages and records for this station are not official NWS values.
T = Trace of Precipitation, MM = Missing Value Source: NWS Daily Summary

Daily Weather History Graph

Daily Weather History Graph

Search for Another Location

Airport or City:

Trip Planner

Search our weather history database for the weather conditions in past years. The results will help you decide how hot, cold, wet, or windy it might be!

Date:

Astronomy

Sep. 08, 2013 Rise Set
Actual Time 6:18 AM PDT 6:57 PM PDT
Civil Twilight 5:52 AM PDT 7:23 PM PDT
Nautical Twilight 5:21 AM PDT 7:54 PM PDT
Astronomical Twilight 4:49 AM PDT 8:25 PM PDT
Moon 9:32 AM PDT 8:44 PM PDT
Length of Visible Light 13h 31m
Length of Day
12h 39m
Waxing Crescent, 12% of the Moon is Illuminated
Sep 8
Waxing Crescent
Sep 12
First Quarter
Sep 19
Full
Sep 26
Last Quarter
Oct 4
New

Hourly Weather History & Observations

Time (PDT) Temp. Heat Index Dew Point Humidity Pressure Visibility Wind Dir Wind Speed Gust Speed Precip Events Conditions
12:53 AM 80.1 °F 81.1 °F 61.0 °F 52% 29.91 in 10.0 mi Calm Calm - N/A   Mostly Cloudy
1:53 AM 79.0 °F - 61.0 °F 54% 29.91 in 10.0 mi SE 3.5 mph - N/A   Mostly Cloudy
2:53 AM 80.1 °F 80.6 °F 57.9 °F 47% 29.91 in 10.0 mi East 10.4 mph - N/A   Clear
3:53 AM 78.1 °F - 60.1 °F 54% 29.92 in 10.0 mi SSE 10.4 mph - N/A   Clear
4:53 AM 75.9 °F - 62.1 °F 62% 29.93 in 10.0 mi SSE 5.8 mph - N/A   Partly Cloudy
5:53 AM 73.9 °F - 62.1 °F 66% 29.95 in 10.0 mi SE 8.1 mph - N/A   Mostly Cloudy
6:53 AM 71.1 °F - 64.9 °F 81% 29.97 in 10.0 mi SE 5.8 mph - 0.00 in Rain Light Rain
7:53 AM 70.0 °F - 64.9 °F 84% 29.98 in 10.0 mi SE 4.6 mph - 0.02 in Rain Light Rain
8:53 AM 70.0 °F - 64.9 °F 84% 29.98 in 10.0 mi Calm Calm - 0.02 in Rain Light Rain
9:53 AM 71.1 °F - 64.0 °F 78% 29.98 in 10.0 mi Calm Calm - 0.00 in   Scattered Clouds
10:53 AM 73.0 °F - 64.9 °F 76% 29.98 in 10.0 mi Calm Calm - N/A   Scattered Clouds
11:53 AM 77.0 °F - 64.9 °F 66% 29.96 in 10.0 mi SSE 4.6 mph - N/A   Partly Cloudy
12:53 PM 77.0 °F - 64.0 °F 64% 29.94 in 10.0 mi Calm Calm - N/A   Scattered Clouds
1:53 PM 81.0 °F 82.5 °F 64.0 °F 56% 29.92 in 10.0 mi ESE 4.6 mph - N/A   Mostly Cloudy
2:53 PM 79.0 °F - 64.9 °F 62% 29.88 in 10.0 mi SE 4.6 mph - 0.00 in   Mostly Cloudy
3:53 PM 82.9 °F 83.7 °F 62.1 °F 49% 29.84 in 10.0 mi Calm Calm - N/A   Clear
4:53 PM 84.9 °F 85.0 °F 61.0 °F 44% 29.83 in 10.0 mi ESE 9.2 mph - N/A   Clear
5:53 PM 84.0 °F 84.4 °F 61.0 °F 46% 29.81 in 10.0 mi ESE 5.8 mph - N/A   Clear
6:53 PM 82.9 °F 83.7 °F 62.1 °F 49% 29.82 in 10.0 mi ESE 4.6 mph - N/A   Clear
7:53 PM 81.0 °F 81.7 °F 61.0 °F 50% 29.82 in 10.0 mi ESE 5.8 mph - N/A   Clear
8:53 PM 80.1 °F 81.1 °F 61.0 °F 52% 29.84 in 10.0 mi SE 6.9 mph - N/A   Clear
9:53 PM 80.1 °F 80.7 °F 59.0 °F 48% 29.85 in 10.0 mi ESE 4.6 mph - N/A   Partly Cloudy
10:53 PM 80.1 °F 80.9 °F 60.1 °F 50% 29.85 in 10.0 mi South 3.5 mph - N/A   Clear
11:53 PM 77.0 °F - 60.1 °F 56% 29.86 in 10.0 mi Calm Calm - N/A   Clear